[[{"header":{"parameterUnit":"m.s-1","parameterCategory":1,"la1":30.2991,"la2":30.254,"lo1":-89.0895,"lo2":-89.0444,"dy":0.0017,"dx":0.0017,"nx":28,"ny":28,"refTime":"2023-08-12T09:00:00:Z","depth":0,"parameterNumber":2,"parameterNumberName":"U-component_of_WINDS"},"data":[0,0,0,0,0,0,0,0,0,0,0,0,0,0,0,0,0,0,0,0,0,0,0,0,0,0,0,0,0,0,0,0,0,0,0,0,0,0,0,0,0,0,0,0,0,0,0,0,0,0,0,0,0,0,0,0,0,0,3.3515,3.3516,0,3.3592,3.3593,3.3594,3.3556,3.3554,3.3552,3.355,3.3628,3.3632,3.3636,0,0,0,0,0,0,0,0,0,0,0,0,0,3.3333,3.3336,3.3515,3.3516,3.3517,3.3592,3.3593,3.3594,3.3556,3.3554,3.3551,3.3549,3.3627,3.3631,3.3636,0,0,0,0,0,0,0,0,0,0,0,0,0,3.3411,3.3338,3.3515,3.3507,3.3507,3.3592,3.3593,3.3595,3.3557,3.3554,3.3551,3.3548,3.3625,3.3631,3.3637,3.3733,0,0,3.3655,3.3657,0,0,0,0,0,0,0,0,3.3407,3.3418,3.3507,3.3508,3.3508,3.3562,3.3558,3.3641,3.3558,3.3538,3.355,3.3547,3.3608,3.3615,3.3636,3.3737,3.374,3.3655,3.3659,3.3661,3.3663,0,0,0,0,0,0,0,3.3401,3.3414,3.3545,3.3508,3.3509,3.3499,3.3507,3.3573,3.3589,3.3539,3.3537,3.3547,3.3608,3.3631,3.3638,3.3741,3.3655,3.366,3.3664,3.3666,3.3925,3.3929,0,0,0,0,0,0,3.3397,3.341,3.3543,3.3548,3.3449,3.3505,3.3514,3.3547,3.3588,3.3591,3.3549,3.3545,3.3622,3.3631,3.364,3.3756,3.3661,3.3667,3.367,3.3922,3.3926,3.393,0,0,0,0,0,0,3.3393,3.3409,3.354,3.3478,3.3494,3.3511,3.3549,3.355,3.3573,3.3595,3.3598,3.357,3.362,3.3632,3.3711,3.3758,3.367,3.3675,3.3918,3.3923,3.3928,3.3989,0,0,0,0,0,0,3.3388,3.3408,3.3445,3.348,3.3498,3.3609,3.3552,3.3554,3.3584,3.3579,3.3615,3.3619,3.3619,3.3702,3.3717,3.3765,3.368,3.3914,3.3921,3.3926,3.3983,3.3995,3.4006,0,0,0,0,0,3.3381,3.3458,3.3447,3.3463,3.3545,3.3612,3.3622,3.3621,3.3588,3.3625,3.3639,3.3618,3.3751,3.371,3.3726,3.3777,3.3911,3.3919,3.3926,3.3977,3.3993,3.4006,0,0,0,0,0,0,3.3428,3.3463,3.345,3.3541,3.3574,3.3606,3.3652,3.3638,3.368,3.3674,3.367,3.3679,3.376,3.3777,3.3731,3.3873,3.3826,3.3837,3.3859,3.3874,3.3886,3.388,3.3684,0,0,0,0,0,3.3449,3.3501,3.3529,3.3606,3.3623,3.3635,3.3665,3.3661,3.3695,3.3708,3.3728,3.3762,3.3811,3.3844,3.389,3.3985,3.3992,3.4028,3.404,3.4049,3.4059,3.411,3.4126,3.3955,3.3954,3.3954,0,0,3.3492,3.3518,3.3551,3.3616,3.3641,3.3695,3.3647,3.3706,3.3746,3.3717,3.3793,3.3809,3.3846,3.3933,3.3972,3.3949,3.4108,3.4059,3.4066,3.4071,3.412,3.4136,3.415,3.396,3.3959,3.3958,0,0,3.3599,3.3624,3.3691,3.3718,3.3757,3.3764,3.3781,3.3815,3.3825,3.39,3.388,3.3927,3.4013,3.404,3.4065,3.4183,3.4165,3.4199,3.426,3.431,3.4323,3.4335,3.4377,3.4392,3.4208,3.4208,3.4208,0,3.3648,3.3729,3.3728,3.3789,3.3818,3.3795,3.3863,3.3888,3.3941,3.3961,3.3935,3.4042,3.4065,3.4158,3.4187,3.4208,3.4226,3.4194,3.4322,3.4334,3.4345,3.4385,3.4401,3.4212,3.4212,3.4211,3.4211,0,3.3788,3.3844,3.3894,3.3945,3.398,3.4044,3.4052,3.4087,3.4081,3.4091,3.4169,3.4196,3.4248,3.427,3.4264,3.4363,3.4347,3.4322,3.4274,3.4365,3.4402,3.4418,3.4217,3.4216,3.4215,3.4214,0,0,3.3925,3.3976,3.3994,3.4017,3.4059,3.4102,3.4166,3.4217,3.4247,3.4284,3.4337,3.441,3.4387,3.4415,3.4412,3.4457,3.4548,3.4425,3.4426,3.4447,3.4659,3.4677,3.4695,3.4537,3.454,3.4542,3.4655,0,3.4035,3.4146,3.4146,3.4249,3.4301,3.428,3.4335,3.4367,3.4378,3.4424,3.4436,3.4488,3.4454,3.4471,3.4513,3.4528,3.4591,3.452,3.4585,3.4588,3.4576,3.4715,3.4735,3.484,3.467,3.4672,3.4674,0,3.4177,3.422,3.4327,3.4362,3.4384,3.4433,3.448,3.4525,3.456,3.4565,3.4598,3.4588,3.4652,3.4603,3.4692,3.4643,3.467,3.4682,3.4686,3.4691,3.4636,3.4723,3.4874,3.489,3.4697,3.4696,3.4694,0,3.4267,3.435,3.4426,3.4446,3.4488,3.4524,3.4543,3.4575,3.4606,3.4648,3.4668,3.4716,3.4742,3.478,3.4784,3.4748,3.4873,3.4824,3.4878,3.4878,3.4905,3.4903,3.5061,3.4923,3.4923,3.4923,3.4923,0,3.4389,3.4455,3.4466,3.4513,3.4586,3.4587,3.466,3.4676,3.4705,3.4754,3.4739,3.4785,3.4788,3.4835,3.4838,3.4911,3.4923,3.4929,3.4929,3.493,3.4929,3.4947,3.4939,3.4927,3.4926,3.4925,3.4925,0,3.4501,3.4511,3.4592,3.4625,3.4635,3.4688,3.4717,3.4761,3.4771,3.4833,3.4848,3.4864,3.4919,3.4927,3.4991,3.4993,3.508,3.5073,3.5068,3.5067,3.5121,3.5116,3.5296,3.5319,3.5166,3.5168,3.5169,0,3.4578,3.4629,3.4668,3.47,3.4721,3.4772,3.4804,3.4806,3.484,3.4885,3.4923,3.4977,3.5019,3.5108,3.5125,3.5174,3.5168,3.5228,3.5175,3.5175,3.5168,3.5165,3.517,3.5237,3.5239,3.524,3.5242,0,3.4713,3.4716,3.4763,3.4811,3.485,3.4888,3.4924,3.4951,3.4958,3.4997,3.5053,3.5086,3.5152,3.5205,3.5254,3.5273,3.5259,3.5258,3.5273,3.5275,3.527,3.5273,3.5095,3.5254,3.5253,3.5252,3.5251,3.5251,3.481,3.4854,3.4889,3.4941,3.4969,3.5003,3.5046,3.5062,3.5109,3.5163,3.5162,3.5224,3.5258,3.5322,3.5345,3.5393,3.5373,3.5395,3.5401,3.5406,3.5411,3.5263,3.5402,3.5401,3.5401,3.5401,3.54,0,3.4945,3.4966,3.5015,3.5066,3.5107,3.5091,3.513,3.5165,3.522,3.5253,3.5296,3.5361,3.5412,3.5434,3.5485,3.5519,3.5514,3.5532,3.5529,3.5534,3.5426,3.5408,3.5536,3.5536,3.5536,3.5536,3.5536,3.5536,3.502,3.5094,3.51,3.5188,3.5209,3.5269,3.5293,3.5325,3.5351,3.5424,3.5467,3.5481,3.551,3.5563,3.5609,3.5614,3.5634,3.5655,3.5657,3.5555,3.5542,3.5529,3.5511,3.5659,3.566,3.5761,3.5762,3.5763]},{"header":{"parameterUnit":"m.s-1","parameterCategory":1,"la1":30.2991,"la2":30.254,"lo1":-89.0895,"lo2":-89.0444,"dy":0.0017,"dx":0.0017,"nx":28,"ny":28,"refTime":"2023-08-12T09:00:00:Z","depth":0,"parameterNumber":3,"parameterNumberName":"V-component_of_WINDS"},"data":[0,0,0,0,0,0,0,0,0,0,0,0,0,0,0,0,0,0,0,0,0,0,0,0,0,0,0,0,0,0,0,0,0,0,0,0,0,0,0,0,0,0,0,0,0,0,0,0,0,0,0,0,0,0,0,0,0,0,-0.8227,-0.8227,0,-0.8239,-0.8239,-0.824,-0.8232,-0.8232,-0.8231,-0.8231,-0.8243,-0.8244,-0.8244,0,0,0,0,0,0,0,0,0,0,0,0,0,-0.8196,-0.8196,-0.8227,-0.8227,-0.8227,-0.8239,-0.8239,-0.824,-0.8232,-0.8232,-0.8231,-0.8231,-0.8243,-0.8244,-0.8244,0,0,0,0,0,0,0,0,0,0,0,0,0,-0.8209,-0.8196,-0.8227,-0.8225,-0.8225,-0.8239,-0.8239,-0.824,-0.8232,-0.8232,-0.8231,-0.8231,-0.8243,-0.8244,-0.8245,-0.8261,0,0,-0.8248,-0.8248,0,0,0,0,0,0,0,0,-0.8208,-0.821,-0.8225,-0.8225,-0.8225,-0.8234,-0.8233,-0.8247,-0.8232,-0.8229,-0.8231,-0.823,-0.824,-0.8241,-0.8245,-0.8262,-0.8262,-0.8248,-0.8248,-0.8249,-0.8249,0,0,0,0,0,0,0,-0.8207,-0.8209,-0.8232,-0.8225,-0.8225,-0.8223,-0.8224,-0.8236,-0.8238,-0.823,-0.8229,-0.8231,-0.824,-0.8244,-0.8245,-0.8263,-0.8248,-0.8248,-0.8249,-0.8249,-0.8294,-0.8295,0,0,0,0,0,0,-0.8206,-0.8209,-0.8231,-0.8232,-0.8215,-0.8224,-0.8226,-0.8231,-0.8237,-0.8238,-0.8231,-0.823,-0.8243,-0.8244,-0.8246,-0.8266,-0.8249,-0.825,-0.825,-0.8294,-0.8294,-0.8295,0,0,0,0,0,0,-0.8206,-0.8208,-0.8231,-0.822,-0.8223,-0.8225,-0.8232,-0.8232,-0.8236,-0.8239,-0.8239,-0.8235,-0.8242,-0.8244,-0.8258,-0.8266,-0.825,-0.8251,-0.8293,-0.8294,-0.8295,-0.8306,0,0,0,0,0,0,-0.8205,-0.8208,-0.8215,-0.822,-0.8223,-0.8242,-0.8232,-0.8232,-0.8237,-0.8236,-0.8242,-0.8243,-0.8242,-0.8256,-0.8259,-0.8267,-0.8252,-0.8292,-0.8293,-0.8294,-0.8305,-0.8307,-0.8309,0,0,0,0,0,-0.8204,-0.8217,-0.8215,-0.8218,-0.8231,-0.8243,-0.8245,-0.8244,-0.8238,-0.8245,-0.8247,-0.8242,-0.8265,-0.8258,-0.826,-0.8269,-0.8292,-0.8293,-0.8294,-0.8304,-0.8306,-0.8309,0,0,0,0,0,0,-0.8211,-0.8218,-0.8215,-0.8231,-0.8237,-0.8242,-0.825,-0.8247,-0.8254,-0.8253,-0.8252,-0.8253,-0.8267,-0.827,-0.8261,-0.8286,-0.8277,-0.8279,-0.8283,-0.8286,-0.8288,-0.8287,-0.8252,0,0,0,0,0,-0.8215,-0.8224,-0.8229,-0.8242,-0.8245,-0.8247,-0.8252,-0.8251,-0.8257,-0.8259,-0.8262,-0.8268,-0.8276,-0.8281,-0.8289,-0.8305,-0.8306,-0.8313,-0.8315,-0.8317,-0.8318,-0.8327,-0.833,-0.83,-0.83,-0.83,0,0,-0.8222,-0.8227,-0.8232,-0.8244,-0.8248,-0.8257,-0.8249,-0.8259,-0.8266,-0.826,-0.8273,-0.8276,-0.8282,-0.8297,-0.8304,-0.8299,-0.8327,-0.8318,-0.832,-0.832,-0.8328,-0.8331,-0.8334,-0.83,-0.83,-0.83,0,0,-0.824,-0.8245,-0.8256,-0.8261,-0.8268,-0.8269,-0.8272,-0.8278,-0.8279,-0.8292,-0.8289,-0.8297,-0.8311,-0.8316,-0.832,-0.8341,-0.8337,-0.8344,-0.8354,-0.8363,-0.8365,-0.8367,-0.8374,-0.8377,-0.8345,-0.8345,-0.8345,0,-0.8248,-0.8262,-0.8262,-0.8273,-0.8278,-0.8274,-0.8286,-0.829,-0.8299,-0.8303,-0.8298,-0.8317,-0.832,-0.8336,-0.8342,-0.8345,-0.8348,-0.8342,-0.8365,-0.8367,-0.8369,-0.8375,-0.8378,-0.8346,-0.8346,-0.8346,-0.8346,0,-0.8271,-0.8281,-0.829,-0.8299,-0.8305,-0.8316,-0.8318,-0.8324,-0.8323,-0.8325,-0.8339,-0.8343,-0.8352,-0.8356,-0.8355,-0.8372,-0.8369,-0.8365,-0.8356,-0.8372,-0.8379,-0.8381,-0.8347,-0.8347,-0.8346,-0.8346,0,0,-0.8293,-0.8303,-0.8306,-0.831,-0.8318,-0.8326,-0.8337,-0.8346,-0.8351,-0.8358,-0.8367,-0.838,-0.8376,-0.8381,-0.8381,-0.8388,-0.8404,-0.8383,-0.8383,-0.8386,-0.8423,-0.8426,-0.8429,-0.8402,-0.8403,-0.8403,-0.8422,0,-0.8311,-0.833,-0.8331,-0.8349,-0.8358,-0.8355,-0.8365,-0.8371,-0.8373,-0.8381,-0.8384,-0.8393,-0.8387,-0.839,-0.8398,-0.8401,-0.8411,-0.8399,-0.841,-0.8411,-0.8408,-0.8432,-0.8435,-0.8452,-0.8425,-0.8425,-0.8425,0,-0.8334,-0.8342,-0.836,-0.8368,-0.8371,-0.838,-0.8389,-0.8397,-0.8403,-0.8405,-0.8411,-0.8409,-0.8421,-0.8413,-0.8428,-0.842,-0.8425,-0.8427,-0.8428,-0.8428,-0.8418,-0.8432,-0.8458,-0.846,-0.8429,-0.8429,-0.8429,0,-0.8347,-0.8363,-0.8376,-0.838,-0.8388,-0.8395,-0.8398,-0.8405,-0.841,-0.8418,-0.8422,-0.8431,-0.8435,-0.8442,-0.8443,-0.8438,-0.8459,-0.8451,-0.846,-0.846,-0.8464,-0.8463,-0.849,-0.8468,-0.8468,-0.8468,-0.8468,0,-0.8366,-0.8378,-0.8382,-0.839,-0.8403,-0.8404,-0.8417,-0.842,-0.8426,-0.8435,-0.8433,-0.8441,-0.8443,-0.8451,-0.8452,-0.8465,-0.8467,-0.8468,-0.8468,-0.8468,-0.8468,-0.847,-0.8469,-0.8469,-0.8469,-0.8468,-0.8468,0,-0.8383,-0.8386,-0.84,-0.8408,-0.841,-0.8419,-0.8425,-0.8433,-0.8436,-0.8447,-0.845,-0.8454,-0.8464,-0.8466,-0.8478,-0.8478,-0.8493,-0.8492,-0.8491,-0.849,-0.8499,-0.8498,-0.8528,-0.8531,-0.8508,-0.8508,-0.8508,0,-0.8394,-0.8403,-0.8412,-0.8418,-0.8422,-0.8432,-0.8438,-0.844,-0.8446,-0.8455,-0.8462,-0.8472,-0.8479,-0.8495,-0.8499,-0.8508,-0.8507,-0.8517,-0.8508,-0.8508,-0.8507,-0.8506,-0.8507,-0.8518,-0.8519,-0.8519,-0.8519,0,-0.8415,-0.8416,-0.8425,-0.8434,-0.8442,-0.8449,-0.8456,-0.8461,-0.8464,-0.8472,-0.8482,-0.8488,-0.8501,-0.851,-0.852,-0.8524,-0.8522,-0.8522,-0.8524,-0.8524,-0.8522,-0.8522,-0.8494,-0.8521,-0.8521,-0.8521,-0.852,-0.852,-0.8429,-0.8436,-0.8444,-0.8454,-0.846,-0.8467,-0.8474,-0.8479,-0.8487,-0.8498,-0.8499,-0.851,-0.8517,-0.8529,-0.8534,-0.8543,-0.854,-0.8543,-0.8544,-0.8545,-0.8545,-0.8522,-0.8545,-0.8544,-0.8544,-0.8544,-0.8544,0,-0.8448,-0.8453,-0.8463,-0.8473,-0.8481,-0.848,-0.8488,-0.8494,-0.8504,-0.8511,-0.8519,-0.8532,-0.8541,-0.8546,-0.8556,-0.8562,-0.8562,-0.8564,-0.8564,-0.8564,-0.8548,-0.8544,-0.8565,-0.8565,-0.8565,-0.8565,-0.8565,-0.8565,-0.8459,-0.8472,-0.8475,-0.8491,-0.8496,-0.8507,-0.8512,-0.8519,-0.8524,-0.8538,-0.8546,-0.855,-0.8556,-0.8566,-0.8575,-0.8576,-0.858,-0.8583,-0.8584,-0.8568,-0.8566,-0.8564,-0.856,-0.8584,-0.8584,-0.86,-0.86,-0.86]}]]